sat.trackr.live / text

‹ back to catalog

STARLINK-35334

NORAD 66450 · 2025-259AE

PAYLOAD ACTIVE UNKNOWN

§ Identity

Operator
Country
US
Launch date
2025-11-11
Launch site
AFETR
Launch vehicle
Mass (kg)
RCS (m²)

Purposes: comms

External: N2YO · Heavens-Above · Gunter

§ Orbital elements

Epoch: 2026-09-20T23:12:10.367424Z

Period
94.27 min
Inclination
43.0020°
Eccentricity
0.0001316
Mean motion
15.27588900 rev/d
Perigee alt
482.1 km
Apogee alt
483.9 km
Semi-major
6,861.2 km
B*
2.8184e-4
RAAN
251.7581°
Arg perigee
269.8980°
Mean anomaly
90.1721°
Rev number
4,935

§ Raw data

STARLINK-353341 66450U 25259AE  26263.96678666  .00007504  00000+0  28184-3 0  99982 66450  43.0020 251.7581 0001316 269.8980  90.1721 15.27588900 49350

JSON: /api/v1/satellites/66450 · /tle

For live sub-satellite position, see the globe view (requires WebGL).

§ Visibility from observer

Set your observer location to see the next 7 days of passes ≥ 10°. The values pass through the URL so the page stays shareable.

No JS? Fill the form by hand. The geolocation button needs JavaScript.